Home   Weather   Ballarat   Past weeks

Flag for Australia Past Weather in Ballarat, Victoria, Australia — Yesterday and Last 2 Weeks

Now
93 °F

Extremely hot.


Feels Like: 89 °F
Forecast: 53 / 69 °F
Wind: 13 mph from Northwest

Location: Sheoaks Aws

Current Time: Jan 23, 2017 at 1:57:03 pm

Latest Report: Jan 23, 2017 at 1:00 pm


Visibility: N/A

Pressure: 29.66 "Hg

Humidity: 16%

Dew Point: 40 °F

Location of BallaratLocation

Past Weather in Ballarat — Graph

°F

Ballarat Temperature Yesterday

Maximum temperature yesterday: 83 °F (at 3:00 pm)
Minimum temperature yesterday: 48 °F (at 4:00 am)
Average temperature yesterday: 65 °F

High & Low Weather Summary for the Past Weeks

 TemperatureHumidityPressure
High98 °F (Jan 17, 4:00 pm)96% (Jan 22, 6:00 am)30.09 "Hg (Jan 22, 6:00 am)
Low45 °F (Jan 19, 6:00 am)10% (Jan 17, 4:00 pm)29.26 "Hg (Jan 20, 6:00 am)
Average65 °F61%29.83 "Hg
* Reported Jan 8 12:00 pm — Jan 23 12:00 pm, Ballarat, Weather by CustomWeather, © 2017

Note: Actual official high and low records may vary slightly from our data, if they occured in-between our weather recording intervals... More about our weather records

Advertising

Ballarat Weather History for the Previous 24 Hours

Scroll right to see more
 ConditionsComfort  
Time TempWeatherWind HumidityBarometerVisibility
12:00 pm
Mon, Jan 23
93 °FHot.15 mph17%29.67 "HgN/A
10:00 am88 °FHot.6 mph26%29.70 "HgN/A
9:00 am82 °FPleasantly warm.7 mph36%29.72 "HgN/A
7:00 am70 °FMild.6 mph52%29.71 "HgN/A
6:00 am68 °FMild.5 mph58%29.72 "HgN/A
4:00 am69 °FMild.6 mph61%29.72 "HgN/A
3:00 am63 °FMild.3 mph88%29.75 "HgN/A
1:00 am61 °FCool.2 mph87%29.78 "HgN/A
12:00 am62 °FCool.2 mph87%29.81 "HgN/A
10:00 pm
Sun, Jan 22
64 °FMild.5 mph76%29.86 "HgN/A
9:00 pm67 °FMild.6 mph69%29.85 "HgN/A
7:00 pm76 °FMild.13 mph48%29.84 "HgN/A
6:00 pm80 °FWarm.13 mph40%29.84 "HgN/A
4:00 pm83 °FPleasantly warm.13 mph31%29.88 "HgN/A
3:00 pm83 °FPleasantly warm.10 mph32%29.90 "HgN/A
1:00 pm80 °FPleasantly warm.8 mph35%29.93 "HgN/A
Weather by CustomWeather, © 2017

See weather overviewHow to use our weather pages